When you browse on this site, cookies collect data to enhance your experience and personalize the content and advertising you see.
Visit our Privacy Policy to learn more. By continuing to use the site, you agree to this use of cookies and data.
  • In Czech Republic
  • List of Countries
  • For 7 days
  • Water Temperature
  • Satellite Maps
  • Weather Map
  • Weather Widgets
  • user-avatar
    Login

    Hourly Weather Toronto

    Today, 19 April, Friday

    Time Temperature Precipitation Wind Pressure Humidity
    00:00 +16°C° 0.5 mm 2 mps 740 mmHg 91%
    01:00 +15°C° 0 mm 1 mps 739 mmHg 95%
    02:00 +15°C° 0.5 mm 2 mps 739 mmHg 94%
    03:00 +14°C° 0.5 mm 2 mps 739 mmHg 93%
    04:00 +13°C° 0.5 mm 3 mps 739 mmHg 92%
    05:00 +12°C° 0.8 mm 3 mps 740 mmHg 91%
    06:00 +11°C° 0.8 mm 3 mps 740 mmHg 90%
    07:00 +11°C° 0.8 mm 4 mps 740 mmHg 89%
    08:00 +9°C° 2.1 mm 5 mps 740 mmHg 88%
    09:00 +8°C° 2.1 mm 6 mps 740 mmHg 87%
    10:00 +6°C° 2.1 mm 7 mps 740 mmHg 86%
    11:00 +6°C° 1.5 mm 7 mps 740 mmHg 85%
    12:00 +5°C° 1.5 mm 7 mps 741 mmHg 85%
    13:00 +5°C° 1.5 mm 6 mps 741 mmHg 84%
    14:00 +5°C° 0.1 mm 6 mps 742 mmHg 83%
    15:00 +5°C° 0.1 mm 7 mps 742 mmHg 81%
    16:00 +5°C° 0.1 mm 7 mps 742 mmHg 79%
    17:00 +5°C° 0 mm 6 mps 743 mmHg 79%
    18:00 +5°C° 0 mm 6 mps 743 mmHg 79%
    19:00 +5°C° 0 mm 6 mps 743 mmHg 79%
    20:00 +4°C° 0.3 mm 6 mps 743 mmHg 80%
    21:00 +4°C° 0.3 mm 6 mps 743 mmHg 81%
    22:00 +4°C° 0.3 mm 6 mps 744 mmHg 82%
    23:00 +4°C° 0.1 mm 6 mps 743 mmHg 82%

    Tomorrow, 20 April, Saturday

    Time Temperature Precipitation Wind Pressure Humidity
    00:00 +4°C° 0.1 mm 6 mps 743 mmHg 82%
    01:00 +4°C° 0.1 mm 6 mps 743 mmHg 82%
    02:00 +4°C° 0.2 mm 7 mps 743 mmHg 82%
    03:00 +4°C° 0.2 mm 7 mps 743 mmHg 83%
    04:00 +4°C° 0.2 mm 7 mps 742 mmHg 84%
    05:00 +4°C° 0.2 mm 7 mps 742 mmHg 84%
    06:00 +4°C° 0.2 mm 7 mps 742 mmHg 85%
    07:00 +4°C° 0.2 mm 8 mps 741 mmHg 85%
    08:00 +4°C° 1.7 mm 8 mps 741 mmHg 86%
    09:00 +5°C° 1.7 mm 8 mps 740 mmHg 87%
    10:00 +5°C° 1.7 mm 8 mps 739 mmHg 88%
    11:00 +6°C° 1.1 mm 8 mps 739 mmHg 90%
    12:00 +6°C° 1.1 mm 7 mps 739 mmHg 91%
    13:00 +6°C° 1.1 mm 7 mps 739 mmHg 92%
    14:00 +8°C° 0.1 mm 6 mps 739 mmHg 93%
    15:00 +9°C° 0.1 mm 5 mps 739 mmHg 94%
    16:00 +11°C° 0.1 mm 4 mps 739 mmHg 95%
    17:00 +11°C° 1.1 mm 4 mps 739 mmHg 96%
    18:00 +11°C° 1.1 mm 3 mps 740 mmHg 96%
    19:00 +12°C° 1.1 mm 2 mps 741 mmHg 97%
    20:00 +10°C° 0.1 mm 2 mps 741 mmHg 97%
    21:00 +11°C° 0.1 mm 1 mps 742 mmHg 97%
    22:00 +11°C° 0.1 mm 1 mps 742 mmHg 97%
    23:00 +10°C° 0 mm 2 mps 743 mmHg 97%

    Day after tomorrow, 21 April, Sunday

    Time Temperature Precipitation Wind Pressure Humidity
    00:00 +10°C° 0 mm 3 mps 743 mmHg 97%
    01:00 +10°C° 0 mm 3 mps 743 mmHg 97%
    02:00 +9°C° 0 mm 2 mps 743 mmHg 96%
    03:00 +9°C° 0 mm 2 mps 744 mmHg 95%
    04:00 +10°C° 0 mm 1 mps 744 mmHg 94%
    05:00 +10°C° 0 mm 1 mps 745 mmHg 92%
    06:00 +9°C° 0 mm 2 mps 746 mmHg 90%
    07:00 +9°C° 0 mm 2 mps 746 mmHg 89%
    08:00 +12°C° 0 mm 1 mps 747 mmHg 80%
    09:00 +14°C° 0 mm 1 mps 747 mmHg 72%
    10:00 +14°C° 0 mm 0 mps 748 mmHg 64%
    11:00 +16°C° 0 mm 1 mps 748 mmHg 60%
    12:00 +18°C° 0 mm 1 mps 749 mmHg 56%
    13:00 +19°C° 0 mm 1 mps 749 mmHg 52%
    14:00 +20°C° 0 mm 1 mps 749 mmHg 50%
    15:00 +20°C° 0 mm 1 mps 749 mmHg 49%
    16:00 +20°C° 0 mm 1 mps 749 mmHg 48%
    17:00 +19°C° 0 mm 1 mps 749 mmHg 52%
    18:00 +18°C° 0 mm 1 mps 750 mmHg 57%
    19:00 +16°C° 0 mm 1 mps 750 mmHg 61%
    20:00 +15°C° 0 mm 1 mps 751 mmHg 67%
    21:00 +14°C° 0 mm 1 mps 751 mmHg 72%
    22:00 +13°C° 0 mm 1 mps 751 mmHg 78%
    23:00 +12°C° 0 mm 2 mps 751 mmHg 80%

    22 April, Monday

    Time Temperature Precipitation Wind Pressure Humidity
    00:00 +12°C° 0 mm 2 mps 751 mmHg 83%
    01:00 +10°C° 0 mm 2 mps 751 mmHg 86%
    02:00 +10°C° 0 mm 2 mps 751 mmHg 87%
    03:00 +10°C° 0 mm 2 mps 751 mmHg 87%
    04:00 +9°C° 0 mm 2 mps 751 mmHg 88%
    05:00 +10°C° 0 mm 2 mps 751 mmHg 86%
    06:00 +10°C° 0 mm 2 mps 752 mmHg 84%
    07:00 +10°C° 0 mm 2 mps 752 mmHg 82%
    08:00 +13°C° 0 mm 2 mps 752 mmHg 75%
    09:00 +15°C° 0 mm 1 mps 752 mmHg 68%
    10:00 +18°C° 0 mm 1 mps 752 mmHg 61%
    11:00 +19°C° 0.1 mm 1 mps 752 mmHg 61%
    12:00 +18°C° 0.1 mm 2 mps 752 mmHg 62%
    13:00 +18°C° 0.1 mm 2 mps 752 mmHg 63%
    14:00 +17°C° 0.6 mm 2 mps 752 mmHg 68%
    15:00 +17°C° 0.6 mm 2 mps 752 mmHg 73%
    16:00 +16°C° 0.6 mm 2 mps 751 mmHg 78%
    17:00 +16°C° 0.1 mm 2 mps 752 mmHg 80%
    18:00 +15°C° 0.1 mm 2 mps 752 mmHg 82%
    19:00 +15°C° 0.1 mm 2 mps 752 mmHg 84%
    20:00 +14°C° 0 mm 2 mps 752 mmHg 84%
    21:00 +14°C° 0 mm 2 mps 752 mmHg 85%
    22:00 +13°C° 0 mm 2 mps 752 mmHg 85%
    23:00 +13°C° 0 mm 2 mps 751 mmHg 83%

    23 April, Tuesday

    Time Temperature Precipitation Wind Pressure Humidity
    00:00 +13°C° 0 mm 2 mps 751 mmHg 81%
    01:00 +13°C° 0 mm 2 mps 751 mmHg 79%
    02:00 +12°C° 0 mm 2 mps 750 mmHg 79%
    03:00 +12°C° 0 mm 2 mps 750 mmHg 79%
    04:00 +11°C° 0 mm 3 mps 749 mmHg 79%
    05:00 +11°C° 0 mm 3 mps 749 mmHg 81%
    06:00 +12°C° 0 mm 3 mps 748 mmHg 82%
    07:00 +12°C° 0 mm 3 mps 748 mmHg 84%
    08:00 +14°C° 0.1 mm 3 mps 748 mmHg 81%
    09:00 +17°C° 0.1 mm 4 mps 748 mmHg 78%
    10:00 +19°C° 0.1 mm 4 mps 747 mmHg 76%
    11:00 +20°C° 0.1 mm 4 mps 747 mmHg 72%
    12:00 +21°C° 0.1 mm 5 mps 746 mmHg 69%
    13:00 +22°C° 0.1 mm 5 mps 746 mmHg 65%
    14:00 +23°C° 0.4 mm 5 mps 745 mmHg 63%
    15:00 +23°C° 0.4 mm 6 mps 745 mmHg 61%
    16:00 +24°C° 0.4 mm 6 mps 744 mmHg 59%
    17:00 +22°C° 1.8 mm 5 mps 744 mmHg 66%
    18:00 +21°C° 1.8 mm 4 mps 744 mmHg 74%
    19:00 +19°C° 1.8 mm 3 mps 744 mmHg 82%
    20:00 +17°C° 1.3 mm 4 mps 744 mmHg 82%
    21:00 +14°C° 1.3 mm 4 mps 744 mmHg 82%
    22:00 +10°C° 1.3 mm 5 mps 744 mmHg 82%
    23:00 +9°C° 0 mm 6 mps 744 mmHg 82%

    24 April, Wednesday

    Time Temperature Precipitation Wind Pressure Humidity
    00:00 +9°C° 0 mm 6 mps 744 mmHg 82%
    01:00 +8°C° 0 mm 7 mps 744 mmHg 82%
    02:00 +8°C° 0 mm 7 mps 744 mmHg 81%
    03:00 +6°C° 0 mm 7 mps 744 mmHg 81%
    04:00 +6°C° 0 mm 7 mps 745 mmHg 81%
    05:00 +7°C° 0 mm 6 mps 745 mmHg 80%
    06:00 +7°C° 0 mm 6 mps 746 mmHg 79%
    07:00 +7°C° 0 mm 6 mps 747 mmHg 78%
    08:00 +8°C° 0 mm 6 mps 747 mmHg 73%
    09:00 +9°C° 0 mm 5 mps 747 mmHg 69%
    10:00 +10°C° 0 mm 5 mps 747 mmHg 64%
    11:00 +13°C° 0 mm 5 mps 747 mmHg 59%
    12:00 +14°C° 0 mm 5 mps 747 mmHg 54%
    13:00 +15°C° 0 mm 4 mps 747 mmHg 49%
    14:00 +15°C° 0 mm 4 mps 747 mmHg 48%
    15:00 +15°C° 0 mm 4 mps 747 mmHg 46%
    16:00 +17°C° 0 mm 4 mps 747 mmHg 44%
    17:00 +14°C° 0 mm 4 mps 747 mmHg 46%
    18:00 +13°C° 0 mm 4 mps 747 mmHg 49%
    19:00 +11°C° 0 mm 4 mps 747 mmHg 51%
    20:00 +11°C° 0 mm 4 mps 748 mmHg 49%
    21:00 +10°C° 0 mm 4 mps 748 mmHg 47%
    22:00 +8°C° 0 mm 4 mps 748 mmHg 44%
    23:00 +7°C° 0 mm 4 mps 748 mmHg 47%
    Show more